[[{"header":{"parameterUnit":"m.s-1","parameterCategory":2,"la1":30.2991,"la2":30.254,"lo1":-89.0895,"lo2":-89.0444,"dy":0.0017,"dx":0.0017,"nx":28,"ny":28,"refTime":"2023-10-18T21:00:00:Z","depth":"0","parameterNumber":2,"parameterNumberName":"U-component_of_CURRENTS"},"data":[0,0,0,0,0,0,0,0,0,0,0,0,0,0,0,0,0,0,0,0,0,0,0,0,0,0,0,0,0,0,0,0,0,0,0,0,0,0,0,0,0,0,0,0,0,0,0,0,0,0,0,0,0,0,0,0,0,0,0.3877,0.3878,0,0.3972,0.3973,0.3974,0.4013,0.4013,0.4013,0.4013,0.403,0.4031,0.4032,0,0,0,0,0,0,0,0,0,0,0,0,0,0.3774,0.3776,0.3877,0.3878,0.3879,0.3972,0.3973,0.3974,0.4013,0.4013,0.4013,0.4013,0.403,0.4031,0.4032,0,0,0,0,0,0,0,0,0,0,0,0,0,0.3838,0.3776,0.3877,0.391,0.3914,0.3971,0.3973,0.3974,0.4013,0.4013,0.4013,0.4013,0.403,0.4031,0.4032,0.4042,0,0,0.4035,0.4035,0,0,0,0,0,0,0,0,0.3835,0.3842,0.3904,0.3908,0.3913,0.3981,0.3943,0.3993,0.4013,0.3975,0.4013,0.4013,0.4007,0.401,0.4029,0.4043,0.4043,0.4035,0.4035,0.4036,0.4036,0,0,0,0,0,0,0,0.383,0.3838,0.3914,0.3906,0.3911,0.3936,0.3944,0.3953,0.3989,0.3979,0.3982,0.3993,0.4009,0.4028,0.4029,0.4044,0.4035,0.4035,0.4036,0.4036,0.4139,0.4141,0,0,0,0,0,0,0.3818,0.3834,0.3911,0.3917,0.3873,0.3938,0.3947,0.3959,0.3991,0.3997,0.3993,0.3995,0.4026,0.4028,0.403,0.4107,0.4036,0.4036,0.4037,0.4136,0.4139,0.4141,0,0,0,0,0,0,0.3815,0.3824,0.3907,0.3878,0.389,0.394,0.3953,0.3961,0.3987,0.4003,0.4007,0.4011,0.4026,0.4028,0.4055,0.4105,0.4037,0.4038,0.4134,0.4137,0.414,0.4219,0,0,0,0,0,0,0.3812,0.3822,0.3828,0.3877,0.3892,0.3948,0.3953,0.3963,0.3994,0.3997,0.4019,0.4021,0.4026,0.4054,0.4056,0.4105,0.4038,0.4131,0.4135,0.4139,0.4214,0.4224,0.4234,0,0,0,0,0,0.3808,0.3828,0.3828,0.3838,0.3898,0.3949,0.3959,0.3993,0.3995,0.4013,0.4032,0.402,0.4082,0.4056,0.4058,0.4108,0.4129,0.4134,0.4139,0.4209,0.4222,0.4233,0,0,0,0,0,0,0.3791,0.3835,0.3836,0.3869,0.3904,0.3956,0.398,0.3996,0.4028,0.4028,0.4037,0.4041,0.409,0.4083,0.4054,0.4152,0.4108,0.4114,0.4161,0.4173,0.4183,0.4233,0.4039,0,0,0,0,0,0.3787,0.3811,0.3852,0.3876,0.3894,0.3933,0.3957,0.398,0.4014,0.4028,0.4044,0.4069,0.4112,0.4126,0.4152,0.4191,0.4242,0.4229,0.4239,0.4248,0.4292,0.4409,0.4434,0.4157,0.4157,0.4157,0,0,0.3783,0.3814,0.3824,0.3874,0.3902,0.3954,0.3948,0.399,0.4042,0.4022,0.4085,0.4099,0.413,0.419,0.4211,0.4189,0.4352,0.4254,0.4261,0.4301,0.4417,0.4444,0.4468,0.4161,0.416,0.416,0,0,0.3805,0.3817,0.3849,0.3885,0.3934,0.3966,0.3978,0.4028,0.4058,0.4115,0.4127,0.4178,0.4216,0.4268,0.4297,0.4377,0.4401,0.4371,0.4465,0.4577,0.4602,0.4624,0.4718,0.4748,0.4376,0.4377,0.4377,0,0.3804,0.3854,0.3866,0.3917,0.3964,0.3975,0.4037,0.4072,0.4125,0.4168,0.4145,0.4271,0.4274,0.4395,0.4426,0.4405,0.4465,0.4412,0.4593,0.4616,0.4638,0.4729,0.4761,0.4381,0.4381,0.438,0.438,0,0.3861,0.3903,0.393,0.4,0.4045,0.4099,0.4149,0.419,0.4221,0.4266,0.4373,0.44,0.4485,0.449,0.4485,0.464,0.4631,0.4591,0.4565,0.4671,0.4759,0.4791,0.4387,0.4386,0.4384,0.4383,0,0,0.3866,0.3955,0.3966,0.4029,0.41,0.416,0.4232,0.4328,0.4413,0.445,0.4574,0.4646,0.466,0.4697,0.4697,0.4791,0.4974,0.4762,0.4766,0.4862,0.523,0.5079,0.5099,0.4967,0.4973,0.4978,0.5228,0,0.3917,0.4044,0.4062,0.4186,0.4269,0.43,0.4393,0.4473,0.4528,0.4636,0.4686,0.4791,0.4738,0.4793,0.488,0.497,0.5065,0.491,0.511,0.5116,0.4974,0.5134,0.4849,0.5036,0.526,0.5265,0.5269,0,0.3977,0.4069,0.4212,0.4341,0.4377,0.445,0.4612,0.4681,0.48,0.485,0.494,0.4962,0.5118,0.5034,0.5272,0.518,0.5222,0.527,0.5279,0.5143,0.5026,0.4968,0.5086,0.4953,0.5318,0.5314,0.5311,0,0.4058,0.4167,0.4303,0.4351,0.45,0.4573,0.4639,0.4763,0.4862,0.4985,0.5085,0.5211,0.5327,0.5418,0.5474,0.5409,0.5714,0.5628,0.5534,0.5523,0.5325,0.5284,0.5343,0.5795,0.5794,0.5794,0.5793,0,0.4147,0.4253,0.4355,0.4457,0.4624,0.4669,0.4843,0.4917,0.5049,0.5185,0.5208,0.5343,0.5437,0.557,0.5584,0.5677,0.5809,0.5612,0.5601,0.5338,0.5298,0.5202,0.5138,0.5803,0.5801,0.5799,0.5797,0,0.4257,0.4315,0.4491,0.4644,0.4688,0.4819,0.4962,0.5068,0.5186,0.5363,0.5416,0.5545,0.5701,0.5754,0.592,0.584,0.5744,0.5886,0.5554,0.5497,0.5227,0.5175,0.5107,0.4972,0.586,0.5858,0.5857,0,0.4327,0.444,0.464,0.4722,0.4798,0.4949,0.5044,0.5153,0.5247,0.5471,0.5563,0.574,0.5777,0.5947,0.5867,0.5878,0.5712,0.5607,0.5413,0.5229,0.5169,0.4989,0.4867,0.5197,0.519,0.5185,0.518,0,0.4484,0.4568,0.4711,0.4877,0.4988,0.509,0.5208,0.53,0.5418,0.5534,0.5636,0.5664,0.5769,0.5598,0.5597,0.5565,0.5312,0.5489,0.5407,0.4764,0.4471,0.4325,0.5017,0.513,0.5135,0.5139,0.5142,0.5144,0.4592,0.4709,0.487,0.501,0.5098,0.5147,0.5144,0.5223,0.5311,0.5309,0.5523,0.5403,0.5331,0.5252,0.5207,0.4944,0.4992,0.4744,0.4741,0.461,0.4331,0.49,0.4911,0.4914,0.4918,0.492,0.4923,0,0.4697,0.4806,0.4955,0.5062,0.5073,0.513,0.5169,0.5049,0.4985,0.5047,0.502,0.4839,0.4659,0.4589,0.4399,0.4212,0.4033,0.4103,0.3806,0.3759,0.4373,0.4189,0.3908,0.3908,0.3908,0.3908,0.3908,0.3908,0.4774,0.4917,0.4976,0.4988,0.4994,0.4852,0.4795,0.4609,0.4541,0.428,0.4094,0.4073,0.412,0.4024,0.3801,0.371,0.3476,0.3264,0.336,0.3797,0.3856,0.3912,0.3726,0.3352,0.3352,0.2543,0.2537,0.2533]},{"header":{"parameterUnit":"m.s-1","parameterCategory":2,"la1":30.2991,"la2":30.254,"lo1":-89.0895,"lo2":-89.0444,"dy":0.0017,"dx":0.0017,"nx":28,"ny":28,"refTime":"2023-10-18T21:00:00:Z","depth":"0","parameterNumber":3,"parameterNumberName":"V-component_of_CURRENTS"},"data":[0,0,0,0,0,0,0,0,0,0,0,0,0,0,0,0,0,0,0,0,0,0,0,0,0,0,0,0,0,0,0,0,0,0,0,0,0,0,0,0,0,0,0,0,0,0,0,0,0,0,0,0,0,0,0,0,0,0,0.0099,0.0099,0,0.0048,0.0047,0.0047,0.0002,0.0002,0.0002,0.0001,-0.0073,-0.0075,-0.0076,0,0,0,0,0,0,0,0,0,0,0,0,0,0.0093,0.0094,0.0099,0.0099,0.0098,0.0048,0.0047,0.0047,0.0003,0.0002,0.0002,0.0001,-0.0072,-0.0074,-0.0076,0,0,0,0,0,0,0,0,0,0,0,0,0,0.0073,0.0094,0.01,0.0072,0.0069,0.0048,0.0047,0.0046,0.0003,0.0002,0.0002,0.0001,-0.0072,-0.0074,-0.0077,-0.0081,0,0,-0.0084,-0.0085,0,0,0,0,0,0,0,0,0.0074,0.0073,0.0076,0.0073,0.007,0.0032,0.0018,0.0003,0.0003,0.0026,0.0001,0.0001,-0.0038,-0.0044,-0.0054,-0.0085,-0.0088,-0.0084,-0.0086,-0.0087,-0.0088,0,0,0,0,0,0,0,0.0076,0.0075,0.0078,0.0076,0.0072,0.0039,0.0036,0.0015,-0.0004,0.0024,0.0021,0.0018,-0.0041,-0.0051,-0.0056,-0.0089,-0.0084,-0.0087,-0.0088,-0.0089,-0.0119,-0.0118,0,0,0,0,0,0,0.009,0.0077,0.0079,0.0076,0.0073,0.004,0.0036,0.0044,-0.0004,-0.0011,0.0018,0.0016,-0.0047,-0.0053,-0.0059,-0.0027,-0.0087,-0.0089,-0.0091,-0.0119,-0.0118,-0.0118,0,0,0,0,0,0,0.009,0.0091,0.0081,0.0075,0.0072,0.0041,0.0049,0.0043,0.0035,-0.0007,-0.0015,0.0017,-0.0048,-0.0055,-0.0071,-0.0031,-0.009,-0.0093,-0.012,-0.0119,-0.0118,0.0012,0,0,0,0,0,0,0.009,0.0091,0.01,0.0077,0.0073,0.0088,0.005,0.0043,0.0034,0.0031,-0.0011,-0.0019,-0.0049,-0.0067,-0.0073,-0.0036,-0.0095,-0.0121,-0.012,-0.0118,0.0007,0.0017,0.0026,0,0,0,0,0,0.009,0.0116,0.0101,0.0101,0.0087,0.0089,0.0085,0.0058,0.0035,0.0046,0.001,-0.0017,-0.0063,-0.0068,-0.0076,-0.0038,-0.0122,-0.012,-0.0119,0.0002,0.0015,0.0026,0,0,0,0,0,0,0.0124,0.0114,0.0096,0.0119,0.0109,0.0083,0.0087,0.0065,0.0044,0.0036,-0.001,-0.0019,-0.0014,-0.0053,-0.0058,-0.0047,-0.0096,-0.0096,-0.0002,0.001,0.002,0.0063,-0.0097,0,0,0,0,0,0.0134,0.0148,0.013,0.0148,0.0145,0.0114,0.0109,0.0093,0.0071,0.006,0.0031,-0.0002,-0.0014,-0.0024,-0.0045,-0.0042,-0.0052,-0.0026,-0.0016,-0.0007,0.0021,0.003,0.0044,-0.0113,-0.0113,-0.0113,0,0,0.0151,0.0148,0.0154,0.0155,0.0141,0.0163,0.011,0.0113,0.0135,0.0056,0.0071,0.0034,-0.0006,0.0004,0.0003,-0.0023,0.0033,-0.0005,0.0003,0.0027,0.0033,0.0049,0.0063,-0.0112,-0.0112,-0.0112,0,0,0.0202,0.0189,0.0219,0.0221,0.0211,0.0197,0.0203,0.0181,0.0173,0.0179,0.0133,0.0121,0.0091,0.008,0.0069,0.0117,0.0087,0.01,0.0187,0.0196,0.021,0.0222,0.0243,0.0255,0.0103,0.0103,0.0104,0,0.0219,0.0259,0.0229,0.0262,0.0273,0.0222,0.0262,0.0254,0.0231,0.0236,0.0202,0.018,0.0139,0.0169,0.0183,0.0146,0.0144,0.0151,0.0213,0.0224,0.0235,0.0253,0.0265,0.011,0.0109,0.0108,0.0108,0,0.0298,0.0327,0.0347,0.0373,0.0381,0.0406,0.0393,0.0396,0.0373,0.0364,0.038,0.0327,0.0316,0.0299,0.0258,0.0309,0.0284,0.023,0.0194,0.0259,0.0273,0.0284,0.0119,0.0117,0.0115,0.0113,0,0,0.0344,0.0392,0.0401,0.0425,0.0441,0.0453,0.0496,0.0517,0.0544,0.0523,0.0569,0.0541,0.0502,0.0487,0.0431,0.0435,0.0499,0.0371,0.0368,0.0412,0.0535,0.0478,0.0484,0.0455,0.0457,0.0459,0.0521,0,0.0412,0.0494,0.0506,0.058,0.0613,0.0597,0.064,0.065,0.0646,0.0674,0.064,0.0655,0.0577,0.0573,0.0571,0.0523,0.0532,0.0488,0.0447,0.0447,0.0405,0.0496,0.0457,0.0505,0.0531,0.0533,0.0534,0,0.0491,0.0531,0.0617,0.0671,0.0685,0.0723,0.0767,0.0802,0.0828,0.0826,0.084,0.0809,0.0834,0.0738,0.0731,0.0708,0.0641,0.0594,0.0593,0.0507,0.0411,0.0438,0.0523,0.0313,0.055,0.0549,0.0548,0,0.0527,0.0609,0.0676,0.0697,0.0752,0.0786,0.0814,0.0845,0.0888,0.0929,0.0972,0.0971,0.1004,0.093,0.0853,0.0793,0.0842,0.0735,0.0627,0.0622,0.0565,0.0551,0.0461,0.0726,0.0726,0.0726,0.0726,0,0.0594,0.0647,0.0694,0.0729,0.0801,0.0825,0.0902,0.0926,0.099,0.1087,0.1053,0.1151,0.1056,0.1068,0.0938,0.0857,0.0915,0.0682,0.0646,0.0607,0.0596,0.0388,0.0279,0.0728,0.0728,0.0728,0.0727,0,0.0629,0.0665,0.0735,0.0798,0.0819,0.0867,0.0954,0.1022,0.1071,0.1206,0.1239,0.132,0.1364,0.1256,0.118,0.0996,0.0771,0.0831,0.0804,0.0762,0.0399,0.0299,0.0201,0.0121,0.0706,0.0705,0.0704,0,0.0655,0.0697,0.0773,0.0818,0.085,0.092,0.0988,0.1049,0.1146,0.1336,0.1433,0.1529,0.1647,0.152,0.124,0.1028,0.082,0.0775,0.0626,0.0412,0.0274,0.0193,0.0128,0.0612,0.061,0.0609,0.0608,0,0.07,0.0726,0.0784,0.0873,0.0944,0.1037,0.1148,0.1239,0.1373,0.1533,0.1792,0.1912,0.1805,0.1615,0.1276,0.1085,0.0605,0.0739,0.0531,0.0221,0.0118,0.0013,0.0543,0.0598,0.0599,0.06,0.06,0.0601,0.073,0.0774,0.0853,0.094,0.103,0.1176,0.1296,0.147,0.1687,0.1992,0.2071,0.2306,0.1912,0.1478,0.1173,0.0527,0.0551,0.0272,0.0184,0.0134,0.0007,0.0519,0.0507,0.0508,0.0508,0.0509,0.0509,0,0.0768,0.0832,0.0921,0.1043,0.1166,0.1207,0.1429,0.1601,0.1924,0.2213,0.247,0.2407,0.1909,0.1364,0.0486,0.0026,-0.0119,-0.0204,-0.0336,-0.0366,0.0104,0.0043,-0.0087,-0.0087,-0.0087,-0.0086,-0.0086,-0.0086,0.0793,0.0887,0.0937,0.1137,0.1244,0.146,0.1612,0.1891,0.2141,0.2537,0.2698,0.2778,0.2305,0.0784,-0.025,-0.047,-0.0738,-0.0816,-0.0917,-0.0637,-0.0601,-0.0566,-0.065,-0.0923,-0.0924,-0.1362,-0.1367,-0.137]}],[{"header":{"parameterUnit":"m.s-1","parameterCategory":2,"la1":30.2991,"la2":30.254,"lo1":-89.0895,"lo2":-89.0444,"dy":0.0017,"dx":0.0017,"nx":28,"ny":28,"refTime":"2023-10-18T21:00:00:Z","depth":"2","parameterNumber":2,"parameterNumberName":"U-component_of_CURRENTS"},"data":[0,0,0,0,0,0,0,0,0,0,0,0,0,0,0,0,0,0,0,0,0,0,0,0,0,0,0,0,0,0,0,0,0,0,0,0,0,0,0,0,0,0,0,0,0,0,0,0,0,0,0,0,0,0,0,0,0,0,0.2824,0.2824,0,0.2847,0.2847,0.2847,0.2892,0.2893,0.2894,0.2895,0.2939,0.294,0.294,0,0,0,0,0,0,0,0,0,0,0,0,0,0.2757,0.2758,0.2824,0.2824,0.2825,0.2847,0.2847,0.2848,0.2892,0.2893,0.2894,0.2895,0.2939,0.294,0.294,0,0,0,0,0,0,0,0,0,0,0,0,0,0.2783,0.2759,0.2824,0.285,0.2852,0.2847,0.2847,0.2848,0.2892,0.2893,0.2894,0.2895,0.2939,0.294,0.294,0.2916,0,0,0.2942,0.2942,0,0,0,0,0,0,0,0,0.2782,0.2786,0.2846,0.2848,0.2851,0.2868,0.284,0.2872,0.2891,0.2876,0.2895,0.2896,0.2917,0.2919,0.292,0.2918,0.292,0.2942,0.2942,0.2942,0.2942,0,0,0,0,0,0,0,0.278,0.2785,0.2833,0.2846,0.2849,0.2839,0.2845,0.2846,0.2889,0.2878,0.2881,0.2884,0.2919,0.2919,0.2921,0.2921,0.2942,0.2942,0.2943,0.2943,0.3011,0.3012,0,0,0,0,0,0,0.278,0.2783,0.2832,0.2834,0.2819,0.2839,0.2846,0.2861,0.2888,0.2894,0.2882,0.2886,0.2918,0.2921,0.2923,0.3017,0.2942,0.2943,0.2943,0.3009,0.3011,0.3013,0,0,0,0,0,0,0.2779,0.2784,0.2831,0.2808,0.2814,0.284,0.2856,0.2861,0.2885,0.2892,0.2898,0.2905,0.2919,0.2922,0.2967,0.3014,0.2943,0.2944,0.3008,0.301,0.3012,0.3127,0,0,0,0,0,0,0.2777,0.2784,0.2798,0.2809,0.2815,0.2851,0.2855,0.286,0.2883,0.2888,0.2912,0.2917,0.292,0.2966,0.2967,0.3014,0.2944,0.3006,0.3009,0.3011,0.3121,0.3133,0.3143,0,0,0,0,0,0.2774,0.2784,0.2799,0.2805,0.2833,0.2852,0.2854,0.2876,0.2883,0.2901,0.293,0.2917,0.2984,0.2968,0.2969,0.3017,0.3004,0.3008,0.3011,0.3116,0.313,0.3142,0,0,0,0,0,0,0.2759,0.279,0.2806,0.2826,0.2849,0.286,0.2874,0.2884,0.2917,0.293,0.2937,0.2944,0.2997,0.2984,0.2966,0.3042,0.2991,0.2995,0.3071,0.3084,0.3094,0.3088,0.2944,0,0,0,0,0,0.2762,0.2782,0.2809,0.2826,0.2843,0.2861,0.2872,0.2889,0.2915,0.2931,0.2948,0.2971,0.3004,0.3028,0.304,0.3081,0.3096,0.311,0.3121,0.313,0.3125,0.3219,0.3239,0.3024,0.3024,0.3024,0,0,0.2758,0.2778,0.2789,0.2825,0.2845,0.2876,0.2873,0.29,0.2939,0.2929,0.2987,0.3003,0.302,0.3078,0.31,0.3081,0.32,0.3135,0.3143,0.3132,0.3225,0.3246,0.3265,0.3026,0.3026,0.3025,0,0,0.2761,0.2786,0.281,0.2838,0.2876,0.289,0.2904,0.2934,0.2968,0.3021,0.3031,0.3078,0.3116,0.3148,0.3169,0.3238,0.3247,0.3243,0.3306,0.34,0.3419,0.3436,0.349,0.351,0.3259,0.3259,0.3259,0,0.2766,0.2796,0.2818,0.2854,0.2881,0.2903,0.294,0.2975,0.3016,0.3049,0.3058,0.314,0.3153,0.3236,0.327,0.3265,0.331,0.3263,0.3418,0.3435,0.345,0.3501,0.3522,0.3265,0.3264,0.3264,0.3263,0,0.2788,0.2823,0.284,0.2899,0.2929,0.2962,0.3014,0.3052,0.3092,0.3126,0.3214,0.3249,0.3303,0.332,0.3325,0.3436,0.3429,0.3419,0.3392,0.3479,0.3526,0.3547,0.3273,0.3271,0.327,0.3268,0,0,0.2782,0.2846,0.2855,0.2882,0.2959,0.2973,0.3057,0.3124,0.3184,0.3241,0.3329,0.3395,0.3416,0.3439,0.3456,0.3533,0.3685,0.3534,0.3536,0.3597,0.3887,0.377,0.3781,0.3726,0.373,0.3733,0.388,0,0.2804,0.2851,0.2894,0.2947,0.2977,0.3037,0.3107,0.3172,0.3254,0.3342,0.3403,0.3493,0.3467,0.3524,0.3597,0.3661,0.3743,0.3644,0.3781,0.3784,0.368,0.3802,0.3483,0.3578,0.3899,0.3903,0.3905,0,0.2821,0.2847,0.2895,0.2964,0.2987,0.3031,0.3139,0.322,0.3355,0.3422,0.3525,0.3583,0.37,0.3677,0.3839,0.3789,0.3847,0.3887,0.3895,0.3754,0.3705,0.3539,0.3603,0.3939,0.3936,0.3933,0.3931,0,0.2763,0.285,0.2875,0.2902,0.2987,0.3033,0.3108,0.3242,0.3331,0.3505,0.3586,0.3713,0.381,0.3905,0.3996,0.3949,0.4174,0.4115,0.4057,0.4048,0.378,0.374,0.4244,0.4244,0.4243,0.4243,0.4242,0,0.2749,0.2776,0.2852,0.285,0.29,0.3011,0.3118,0.3199,0.3385,0.3494,0.3635,0.375,0.3884,0.4021,0.4067,0.4135,0.4243,0.4085,0.4093,0.3808,0.3771,0.4071,0.4049,0.4248,0.4247,0.4246,0.4245,0,0.2688,0.2728,0.2779,0.2862,0.286,0.2936,0.3095,0.3192,0.3374,0.3536,0.3604,0.3823,0.3983,0.4093,0.4266,0.4222,0.4302,0.4302,0.3939,0.3899,0.4083,0.4066,0.4222,0.422,0.4218,0.4216,0.4214,0,0.2657,0.2647,0.2741,0.2752,0.2791,0.2898,0.2946,0.3144,0.3255,0.3568,0.3619,0.3864,0.3975,0.4174,0.4164,0.4217,0.4309,0.3944,0.3767,0.4097,0.409,0.4075,0.4061,0.3467,0.3459,0.3453,0.3448,0,0.2584,0.2635,0.2678,0.2722,0.2767,0.2832,0.2933,0.2981,0.3239,0.3374,0.3588,0.3734,0.3913,0.3831,0.3908,0.3888,0.3895,0.3815,0.4318,0.3507,0.3393,0.3382,0.3392,0.3393,0.3399,0.3403,0.3406,0.3408,0.2562,0.2597,0.2666,0.267,0.2747,0.2777,0.2792,0.2892,0.3024,0.3178,0.3402,0.3504,0.3574,0.3507,0.343,0.3362,0.3603,0.3436,0.3452,0.3475,0.3348,0.3234,0.318,0.3184,0.3188,0.3191,0.3194,0,0.2543,0.2546,0.2566,0.2634,0.269,0.2758,0.2768,0.275,0.2792,0.2948,0.3081,0.2915,0.289,0.297,0.2773,0.2761,0.2705,0.2649,0.255,0.2609,0.266,0.2486,0.2093,0.2089,0.2085,0.2082,0,0,0.2559,0.2522,0.2478,0.2512,0.2583,0.261,0.2586,0.2513,0.2538,0.2516,0.2549,0.2791,0.291,0.2473,0.2404,0.2218,0.239,0.2129,0.3022,0.2967,0.3013,0.3135,0.2937,0,0,0,0,0]},{"header":{"parameterUnit":"m.s-1","parameterCategory":2,"la1":30.2991,"la2":30.254,"lo1":-89.0895,"lo2":-89.0444,"dy":0.0017,"dx":0.0017,"nx":28,"ny":28,"refTime":"2023-10-18T21:00:00:Z","depth":"2","parameterNumber":3,"parameterNumberName":"V-component_of_CURRENTS"},"data":[0,0,0,0,0,0,0,0,0,0,0,0,0,0,0,0,0,0,0,0,0,0,0,0,0,0,0,0,0,0,0,0,0,0,0,0,0,0,0,0,0,0,0,0,0,0,0,0,0,0,0,0,0,0,0,0,0,0,0.0122,0.0121,0,0.0083,0.0083,0.0082,0.0044,0.0044,0.0043,0.0043,-0.0023,-0.0024,-0.0026,0,0,0,0,0,0,0,0,0,0,0,0,0,0.0113,0.0113,0.0122,0.0121,0.0121,0.0084,0.0083,0.0082,0.0044,0.0044,0.0043,0.0043,-0.0022,-0.0024,-0.0026,0,0,0,0,0,0,0,0,0,0,0,0,0,0.0099,0.0114,0.0122,0.0098,0.0096,0.0084,0.0083,0.0082,0.0044,0.0044,0.0043,0.0043,-0.0022,-0.0024,-0.0026,-0.0027,0,0,-0.0032,-0.0033,0,0,0,0,0,0,0,0,0.01,0.0099,0.0102,0.01,0.0097,0.0069,0.0056,0.0045,0.0045,0.0063,0.0043,0.0042,0.0006,0.0002,-0.0005,-0.003,-0.0033,-0.0032,-0.0034,-0.0035,-0.0035,0,0,0,0,0,0,0,0.0101,0.01,0.0105,0.0102,0.0099,0.0073,0.0071,0.0053,0.0037,0.0061,0.0059,0.0056,0.0005,-0.0003,-0.0007,-0.0033,-0.0032,-0.0034,-0.0035,-0.0036,-0.0068,-0.0067,0,0,0,0,0,0,0.0111,0.0102,0.0107,0.0104,0.0098,0.0074,0.0071,0.0078,0.0038,0.0032,0.0057,0.0055,0.0001,-0.0004,-0.0009,-0.0001,-0.0035,-0.0037,-0.0038,-0.0068,-0.0068,-0.0067,0,0,0,0,0,0,0.0111,0.0113,0.0108,0.0102,0.01,0.0075,0.0082,0.0077,0.0071,0.0035,0.0028,0.0057,0.0,-0.0007,-0.0021,-0.0005,-0.0037,-0.0039,-0.0069,-0.0068,-0.0068,0.0008,0,0,0,0,0,0,0.0112,0.0113,0.012,0.0104,0.0101,0.0112,0.0083,0.0077,0.0071,0.0068,0.0033,0.0026,-0.0001,-0.0018,-0.0023,-0.0008,-0.0041,-0.0069,-0.0068,-0.0068,0.0005,0.0011,0.0016,0,0,0,0,0,0.0111,0.0132,0.0121,0.0121,0.0112,0.0113,0.011,0.0088,0.0072,0.0078,0.0049,0.0027,-0.0017,-0.0019,-0.0026,-0.001,-0.007,-0.0069,-0.0068,0.0002,0.001,0.0016,0,0,0,0,0,0,0.0133,0.013,0.0117,0.0135,0.0127,0.0107,0.011,0.0095,0.0077,0.007,0.0033,0.0025,0.0017,-0.0008,-0.0009,-0.0019,-0.0047,-0.0048,0.0008,0.0015,0.002,0.0042,-0.0043,0,0,0,0,0,0.0142,0.0155,0.0143,0.0157,0.0154,0.0131,0.0128,0.0114,0.0097,0.0088,0.0063,0.0035,0.0016,0.0007,-0.0016,-0.0018,-0.0043,-0.0014,-0.0008,-0.0003,0.0009,-0.0014,-0.0009,-0.0064,-0.0064,-0.0064,0,0,0.0153,0.0153,0.016,0.0162,0.0151,0.0163,0.0128,0.0129,0.014,0.0084,0.0088,0.0054,0.0018,0.0014,0.0009,-0.0003,-0.0002,-0.0002,0.0003,0.0012,-0.0013,-0.0007,-0.0003,-0.0064,-0.0064,-0.0064,0,0,0.0189,0.0184,0.0206,0.0207,0.0199,0.0187,0.0192,0.0175,0.0167,0.0166,0.0126,0.0101,0.0078,0.0054,0.0039,0.0062,0.0027,0.0055,0.0105,0.0083,0.0087,0.0091,0.0064,0.0065,0.0061,0.0061,0.0061,0,0.0199,0.0231,0.0212,0.0235,0.0244,0.0205,0.0233,0.0221,0.0202,0.0204,0.0178,0.0136,0.0098,0.0095,0.0099,0.0077,0.0058,0.0085,0.0092,0.0095,0.0097,0.0069,0.0069,0.0065,0.0064,0.0064,0.0064,0,0.0253,0.0277,0.0292,0.0309,0.0315,0.0333,0.0318,0.0318,0.0299,0.0285,0.0275,0.0218,0.0199,0.0176,0.0145,0.0147,0.0126,0.0101,0.0079,0.0108,0.0075,0.0074,0.007,0.0069,0.0068,0.0067,0,0,0.0283,0.0322,0.0329,0.0357,0.0359,0.0376,0.0391,0.0401,0.0428,0.0382,0.0411,0.0347,0.0312,0.0293,0.0243,0.0213,0.0203,0.0173,0.017,0.0155,0.0156,0.0116,0.0109,0.0184,0.0184,0.0184,0.0125,0,0.033,0.0399,0.0402,0.0466,0.0499,0.0481,0.0511,0.0512,0.05,0.0517,0.0445,0.0449,0.036,0.0359,0.0312,0.024,0.0204,0.0221,0.0123,0.012,0.0087,0.0108,0.0132,0.008,0.0124,0.0123,0.0123,0,0.0385,0.0427,0.0504,0.0563,0.0577,0.061,0.0656,0.0682,0.068,0.0671,0.0641,0.0591,0.0541,0.0466,0.0343,0.0363,0.0269,0.0196,0.0192,0.013,0.0077,0.0057,0.0075,0.012,0.012,0.0121,0.0121,0,0.0433,0.05,0.057,0.059,0.0647,0.0684,0.0715,0.0733,0.0796,0.0781,0.0816,0.0721,0.0712,0.0573,0.0413,0.0387,0.0281,0.0225,0.0094,0.009,0.0078,0.0072,0.014,0.014,0.014,0.0141,0.0141,0,0.0494,0.055,0.0605,0.0649,0.0755,0.0759,0.087,0.0881,0.0939,0.1032,0.0913,0.0954,0.0742,0.0652,0.0472,0.0289,0.0324,0.0111,0.0076,0.0103,0.0101,0.0109,0.0106,0.0138,0.0139,0.0139,0.014,0,0.0554,0.0582,0.0678,0.0753,0.0789,0.0874,0.1006,0.1092,0.1108,0.1228,0.1239,0.1159,0.1015,0.0788,0.0574,0.0392,0.0203,0.0128,0.017,0.014,0.0006,0.0008,-0.0033,-0.0035,-0.0037,-0.0038,-0.0039,0,0.0595,0.0651,0.077,0.0855,0.0903,0.1025,0.1127,0.1186,0.1296,0.1361,0.1442,0.133,0.1263,0.0912,0.0569,0.0242,0.0204,0.0057,-0.0006,0.002,-0.0009,-0.0005,-0.0002,0.0006,0.0006,0.0005,0.0005,0,0.0689,0.0732,0.0822,0.0991,0.1116,0.125,0.1395,0.1516,0.1599,0.1665,0.1733,0.1675,0.1326,0.0985,0.0531,0.0308,0.0101,0.0034,0.0075,0.0043,0.0051,0.0024,0.0028,0.0,0.0001,0.0001,0.0001,0.0002,0.077,0.0862,0.0988,0.1152,0.1285,0.1453,0.1578,0.1721,0.1881,0.1972,0.1932,0.1814,0.1446,0.0827,0.0458,0.0056,0.0061,-0.0082,-0.0078,-0.0073,-0.0062,-0.0057,-0.0126,-0.0126,-0.0127,-0.0127,-0.0127,0,0.0866,0.0977,0.1142,0.1324,0.1463,0.1517,0.1739,0.1846,0.2007,0.2064,0.2062,0.1682,0.1304,0.0879,0.0283,-0.0067,-0.009,-0.0177,-0.0122,-0.0115,-0.0109,-0.0098,-0.0173,-0.0174,-0.0175,-0.0176,0,0,0.0926,0.1099,0.1186,0.1434,0.1553,0.1729,0.1849,0.1984,0.2063,0.2084,0.2002,0.1884,0.1401,0.0963,0.0494,0.0163,0.0102,0.0091,0.0164,0.0291,0.0301,-0.0021,0.0008,0,0,0,0,0]}],[{"header":{"parameterUnit":"m.s-1","parameterCategory":2,"la1":30.2991,"la2":30.254,"lo1":-89.0895,"lo2":-89.0444,"dy":0.0017,"dx":0.0017,"nx":28,"ny":28,"refTime":"2023-10-18T21:00:00:Z","depth":"4","parameterNumber":2,"parameterNumberName":"U-component_of_CURRENTS"},"data":[0,0,0,0,0,0,0,0,0,0,0,0,0,0,0,0,0,0,0,0,0,0,0,0,0,0,0,0,0,0,0,0,0,0,0,0,0,0,0,0,0,0,0,0,0,0,0,0,0,0,0,0,0,0,0,0,0,0,0.1615,0.1616,0,0.1668,0.1668,0.1668,0.1735,0.1736,0.1737,0.1739,0.1824,0.1825,0.1826,0,0,0,0,0,0,0,0,0,0,0,0,0,0.1536,0.1537,0.1615,0.1616,0.1617,0.1668,0.1668,0.1668,0.1735,0.1736,0.1738,0.1739,0.1823,0.1824,0.1826,0,0,0,0,0,0,0,0,0,0,0,0,0,0.1575,0.1538,0.1615,0.1658,0.1662,0.1667,0.1668,0.1669,0.1734,0.1736,0.1738,0.174,0.1823,0.1824,0.1826,0.1796,0,0,0.1831,0.1831,0,0,0,0,0,0,0,0,0.1573,0.1578,0.1651,0.1655,0.166,0.1699,0.1672,0.1714,0.1734,0.1704,0.1739,0.1741,0.1785,0.179,0.1791,0.18,0.1804,0.1831,0.1832,0.1832,0.1833,0,0,0,0,0,0,0,0.157,0.1576,0.1633,0.1651,0.1657,0.1663,0.167,0.1679,0.1731,0.1707,0.1712,0.1722,0.1788,0.1789,0.1794,0.1805,0.1831,0.1832,0.1833,0.1834,0.1946,0.1948,0,0,0,0,0,0,0.1569,0.1573,0.1631,0.1635,0.1624,0.1663,0.1671,0.1682,0.1731,0.1741,0.172,0.1725,0.1786,0.1792,0.1797,0.1895,0.1832,0.1834,0.1835,0.1944,0.1947,0.1949,0,0,0,0,0,0,0.1567,0.1573,0.1629,0.1607,0.1615,0.1663,0.1674,0.1682,0.1728,0.1741,0.1752,0.1763,0.1788,0.1795,0.185,0.1894,0.1834,0.1836,0.1942,0.1945,0.1948,0.2007,0,0,0,0,0,0,0.1564,0.1572,0.1594,0.1607,0.1617,0.166,0.1673,0.1682,0.1729,0.1737,0.178,0.1787,0.179,0.1847,0.1851,0.1895,0.1837,0.1939,0.1943,0.1947,0.2003,0.2012,0.202,0,0,0,0,0,0.1561,0.1577,0.1594,0.1602,0.164,0.1662,0.1667,0.1705,0.173,0.1752,0.1791,0.1788,0.1875,0.185,0.1854,0.1899,0.1937,0.1942,0.1947,0.1999,0.201,0.202,0,0,0,0,0,0,0.1557,0.1586,0.1605,0.1631,0.166,0.1675,0.1703,0.1725,0.1769,0.1792,0.1805,0.1815,0.1879,0.1881,0.1853,0.1946,0.1909,0.1915,0.1948,0.1958,0.1967,0.1969,0.1838,0,0,0,0,0,0.1564,0.1587,0.1612,0.1639,0.1657,0.1687,0.1707,0.1734,0.1767,0.179,0.1821,0.1859,0.1891,0.1921,0.1941,0.1987,0.1997,0.2023,0.2032,0.2039,0.2046,0.2103,0.2117,0.1964,0.1964,0.1964,0,0,0.1571,0.1591,0.1606,0.1641,0.1668,0.1696,0.1705,0.1749,0.1785,0.179,0.1861,0.1886,0.1909,0.1964,0.1994,0.198,0.2089,0.2045,0.2051,0.2054,0.2109,0.2124,0.2137,0.1968,0.1967,0.1966,0,0,0.1581,0.1616,0.1636,0.1666,0.1714,0.1728,0.175,0.179,0.1829,0.1888,0.1904,0.196,0.2011,0.2036,0.2053,0.2122,0.2127,0.2139,0.2193,0.2249,0.2261,0.2273,0.2306,0.2319,0.2151,0.2151,0.2151,0,0.159,0.1618,0.1646,0.1677,0.1705,0.1747,0.1775,0.1815,0.1873,0.191,0.1929,0.2021,0.2045,0.2105,0.2141,0.2142,0.2169,0.2148,0.2259,0.2271,0.2281,0.2312,0.2327,0.2155,0.2154,0.2154,0.2154,0,0.1612,0.1647,0.1666,0.1715,0.1746,0.1783,0.1833,0.1884,0.1939,0.1981,0.2069,0.2102,0.2164,0.2182,0.2189,0.2276,0.227,0.2256,0.2229,0.23,0.2328,0.2342,0.216,0.2158,0.2157,0.2156,0,0,0.1593,0.1663,0.1675,0.1693,0.1773,0.1785,0.1865,0.1929,0.1987,0.2066,0.2139,0.2213,0.2252,0.2274,0.2289,0.2343,0.2446,0.2347,0.2348,0.2373,0.2569,0.2406,0.2405,0.2461,0.2464,0.2467,0.2558,0,0.1602,0.1642,0.1687,0.1731,0.1749,0.1821,0.1883,0.1958,0.2037,0.2122,0.2192,0.227,0.2281,0.2325,0.2385,0.2433,0.2487,0.2422,0.2503,0.2504,0.2345,0.2417,0.2476,0.2568,0.2571,0.2574,0.2575,0,0.1593,0.1626,0.1663,0.1721,0.174,0.1785,0.1881,0.1946,0.2084,0.2159,0.2263,0.2323,0.2431,0.242,0.2554,0.252,0.2559,0.2583,0.2587,0.2422,0.2366,0.2484,0.26,0.2598,0.2597,0.2595,0.2593,0,0.1511,0.1591,0.1611,0.1639,0.173,0.1774,0.1835,0.1965,0.2034,0.2194,0.228,0.2397,0.2492,0.2556,0.2639,0.2618,0.2763,0.2731,0.2611,0.26,0.2692,0.2679,0.2816,0.2816,0.2816,0.2815,0.2815,0,0.1454,0.1474,0.1583,0.1591,0.1636,0.173,0.181,0.1896,0.2051,0.2149,0.2301,0.2396,0.2543,0.2642,0.2673,0.269,0.2801,0.263,0.2618,0.2715,0.2703,0.2702,0.2687,0.2819,0.2818,0.2817,0.2817,0,0.1328,0.1402,0.1427,0.1543,0.1586,0.1616,0.1773,0.1846,0.2017,0.2153,0.2216,0.244,0.2585,0.268,0.2801,0.2735,0.2752,0.2724,0.2828,0.2819,0.2541,0.2529,0.2593,0.2588,0.2584,0.2581,0.2578,0,0.1265,0.1274,0.1371,0.1398,0.1452,0.1542,0.1622,0.1799,0.1888,0.2162,0.2215,0.2432,0.256,0.2608,0.2711,0.2739,0.2709,0.2686,0.2601,0.2539,0.2522,0.2516,0.251,0.2571,0.257,0.2569,0.2568,0,0.1159,0.1201,0.1218,0.1285,0.1355,0.1428,0.1557,0.161,0.1842,0.2009,0.2178,0.2277,0.2438,0.253,0.2575,0.2585,0.2676,0.2642,0.2649,0.2569,0.2513,0.2499,0.2497,0.2554,0.2556,0.2557,0.2558,0,0.1092,0.1073,0.1123,0.1164,0.1245,0.1311,0.1387,0.1531,0.1645,0.1946,0.1998,0.224,0.2428,0.2454,0.2491,0.2492,0.2451,0.235,0.2373,0.2389,0.2277,0.2173,0.2109,0,0,0,0,0,0.103,0.1005,0.1022,0.1054,0.1132,0.12,0.1354,0.1457,0.1681,0.1746,0.1868,0.2009,0.2132,0.2249,0.221,0.2379,0.2438,0.2319,0.2326,0.2474,0.2491,0.2375,0,0,0,0,0,0,0.0981,0.0983,0.0976,0.0978,0.1003,0.1097,0.1202,0.1352,0.1399,0.1627,0.171,0.1869,0.2015,0.2136,0.217,0.2197,0.2154,0.2446,0.244,0.2465,0.248,0.2493,0.238,0,0,0,0,0]},{"header":{"parameterUnit":"m.s-1","parameterCategory":2,"la1":30.2991,"la2":30.254,"lo1":-89.0895,"lo2":-89.0444,"dy":0.0017,"dx":0.0017,"nx":28,"ny":28,"refTime":"2023-10-18T21:00:00:Z","depth":"4","parameterNumber":3,"parameterNumberName":"V-component_of_CURRENTS"},"data":[0,0,0,0,0,0,0,0,0,0,0,0,0,0,0,0,0,0,0,0,0,0,0,0,0,0,0,0,0,0,0,0,0,0,0,0,0,0,0,0,0,0,0,0,0,0,0,0,0,0,0,0,0,0,0,0,0,0,0.0139,0.0139,0,0.0117,0.0117,0.0117,0.0097,0.0097,0.0096,0.0096,0.0054,0.0053,0.0053,0,0,0,0,0,0,0,0,0,0,0,0,0,0.013,0.013,0.0139,0.0139,0.0139,0.0117,0.0117,0.0117,0.0097,0.0097,0.0096,0.0096,0.0055,0.0054,0.0052,0,0,0,0,0,0,0,0,0,0,0,0,0,0.0123,0.013,0.0139,0.0126,0.0125,0.0118,0.0117,0.0117,0.0097,0.0097,0.0096,0.0096,0.0055,0.0054,0.0052,0.0051,0,0,0.0048,0.0048,0,0,0,0,0,0,0,0,0.0124,0.0124,0.0128,0.0127,0.0126,0.011,0.0098,0.0094,0.0097,0.0107,0.0096,0.0096,0.0071,0.0069,0.0065,0.0049,0.0047,0.0048,0.0047,0.0047,0.0046,0,0,0,0,0,0,0,0.0124,0.0124,0.013,0.0128,0.0126,0.011,0.0109,0.0097,0.0091,0.0106,0.0105,0.0103,0.007,0.0067,0.0064,0.0047,0.0048,0.0047,0.0046,0.0046,0.0014,0.0014,0,0,0,0,0,0,0.013,0.0125,0.0131,0.013,0.0124,0.0111,0.0109,0.0115,0.0092,0.0088,0.0103,0.0102,0.0069,0.0066,0.0063,0.006,0.0047,0.0045,0.0045,0.0014,0.0014,0.0014,0,0,0,0,0,0,0.013,0.0131,0.0132,0.0126,0.0125,0.0111,0.0118,0.0115,0.0115,0.0089,0.0085,0.0106,0.0069,0.0064,0.0056,0.0058,0.0045,0.0044,0.0014,0.0014,0.0014,0.0055,0,0,0,0,0,0,0.013,0.0131,0.0136,0.0127,0.0126,0.0133,0.0118,0.0115,0.0114,0.0112,0.0091,0.0086,0.0068,0.0058,0.0054,0.0056,0.0043,0.0014,0.0014,0.0014,0.0053,0.0056,0.0058,0,0,0,0,0,0.0129,0.0143,0.0137,0.0138,0.0135,0.0134,0.0132,0.012,0.0114,0.0118,0.0102,0.0087,0.0055,0.0057,0.0053,0.0054,0.0014,0.0014,0.0014,0.0052,0.0055,0.0058,0,0,0,0,0,0,0.0142,0.0142,0.0135,0.0148,0.0142,0.0131,0.0134,0.0126,0.0117,0.0114,0.0091,0.0086,0.0077,0.0061,0.0064,0.0044,0.003,0.0029,0.006,0.0063,0.0066,0.008,0.0041,0,0,0,0,0,0.0148,0.0159,0.0151,0.0161,0.016,0.0147,0.0146,0.0138,0.0128,0.0124,0.0109,0.009,0.0074,0.0066,0.0049,0.0043,0.0014,0.0038,0.0041,0.0043,0.0052,0.0009,0.0009,0.0014,0.0014,0.0014,0,0,0.0154,0.0157,0.0162,0.0164,0.0158,0.0166,0.0146,0.0148,0.0153,0.0121,0.0124,0.0101,0.0074,0.0064,0.0059,0.0052,0.0024,0.0043,0.0046,0.0053,0.0009,0.0008,0.0008,0.0014,0.0014,0.0014,0,0,0.0176,0.0177,0.0191,0.0192,0.0188,0.0181,0.0185,0.0176,0.0171,0.0169,0.0144,0.0122,0.0105,0.0082,0.0068,0.0075,0.0039,0.0068,0.0093,0.0052,0.0051,0.005,0.0005,-0.0,0.0069,0.0069,0.0069,0,0.0181,0.0205,0.0194,0.0209,0.0218,0.0193,0.0212,0.0202,0.0191,0.0193,0.0175,0.0139,0.0112,0.0097,0.0095,0.008,0.0052,0.0086,0.0056,0.0054,0.0053,0.0006,-0.0,0.0071,0.0071,0.0071,0.007,0,0.0212,0.0232,0.0243,0.0255,0.026,0.0274,0.0261,0.0263,0.0251,0.0239,0.0224,0.0178,0.0162,0.014,0.0119,0.0097,0.0078,0.0065,0.0051,0.0055,0.0005,-0.0002,0.0074,0.0073,0.0073,0.0072,0,0,0.0226,0.0259,0.0264,0.0292,0.0291,0.0307,0.0312,0.0318,0.0335,0.0295,0.0306,0.0252,0.0226,0.0208,0.017,0.0125,0.0077,0.0095,0.0092,0.0054,-0.0017,-0.0023,-0.0032,0.006,0.0059,0.0059,-0.005,0,0.0256,0.0309,0.031,0.0362,0.0392,0.038,0.0397,0.0395,0.0381,0.0382,0.0318,0.0309,0.0252,0.0245,0.019,0.011,0.0062,0.0108,-0.0019,-0.0023,-0.0025,-0.0039,0.0056,-0.0055,-0.0057,-0.0058,-0.0059,0,0.0288,0.0326,0.0389,0.0443,0.0454,0.0478,0.0515,0.0529,0.0508,0.0495,0.0458,0.0407,0.0337,0.029,0.0143,0.0177,0.009,0.0016,0.001,-0.0012,-0.0042,-0.006,-0.0073,-0.0072,-0.0071,-0.007,-0.0069,0,0.0328,0.0383,0.0447,0.0465,0.0513,0.0544,0.0567,0.0569,0.0599,0.0571,0.0577,0.0478,0.0442,0.0309,0.0143,0.0149,-0.0028,-0.0037,-0.0128,-0.013,-0.011,-0.0108,-0.0134,-0.0134,-0.0134,-0.0133,-0.0133,0,0.037,0.0423,0.0479,0.0518,0.0605,0.0611,0.069,0.0692,0.0704,0.0741,0.0648,0.0633,0.0447,0.0319,0.0164,-0.0013,-0.0015,-0.0126,-0.0157,-0.0092,-0.0086,-0.0116,-0.0112,-0.0138,-0.0137,-0.0136,-0.0135,0,0.0414,0.0447,0.0531,0.0599,0.0633,0.07,0.0784,0.0833,0.0829,0.087,0.0864,0.075,0.0583,0.0376,0.0151,0.0031,-0.015,-0.021,-0.0135,-0.016,-0.0229,-0.0222,-0.0309,-0.031,-0.0311,-0.0312,-0.0312,0,0.0442,0.0492,0.0601,0.066,0.0701,0.08,0.0868,0.0902,0.0944,0.0936,0.0948,0.0811,0.0707,0.0383,0.0158,-0.0145,-0.0181,-0.0273,-0.0243,-0.0224,-0.0247,-0.0238,-0.023,-0.0314,-0.0314,-0.0314,-0.0315,0,0.0493,0.0535,0.0602,0.0726,0.0818,0.0933,0.1018,0.1055,0.1087,0.1083,0.102,0.0853,0.0666,0.0398,0.0158,-0.0059,-0.0215,-0.0283,-0.0282,-0.0254,-0.0231,-0.0251,-0.0242,-0.0318,-0.0317,-0.0317,-0.0317,0,0.0528,0.0582,0.0666,0.0785,0.0899,0.1014,0.1067,0.1106,0.1151,0.1119,0.1093,0.0886,0.0763,0.0442,0.0213,-0.0001,-0.004,-0.0096,-0.0106,-0.0105,-0.0018,0.0043,0.0014,0,0,0,0,0,0.0553,0.0615,0.0714,0.0841,0.0954,0.1034,0.1138,0.1174,0.1196,0.1167,0.1133,0.0953,0.0635,0.0487,0.0276,0.0191,-0.0087,-0.0064,-0.0158,-0.0335,-0.0332,-0.0265,0,0,0,0,0,0,0.0568,0.0655,0.071,0.0862,0.0956,0.1098,0.1173,0.12,0.1173,0.1153,0.098,0.0905,0.0584,0.0754,0.0272,0.0207,0.012,-0.0215,-0.022,-0.0337,-0.0334,-0.0331,-0.0262,0,0,0,0,0]}]]